x

Buzzards Bay, Ma (buzm3) Weather Station

1:00 - Fri 18th Aug 2017 All times are EDT. -4 hours from GMT.

  • Wind
    21mph, 22mph gusts
  • Luft Temp 70°f
  • Sea Pressure 1013.4mb
  • Buzzards Bay, Ma
  • Buzzards Bay, Ma

More Historic Weather Station data

Upgrade to MSW Pro to gain access to the past 30 days of data for over 8000 Wavebouys and Weather Stations around the globe.

Join

Comparision Forecast

View Surf forecast
   
Fr 08/18 1:00 21 22 mph 1013.4mb 70f
12:00 21 22 mph 1014.1mb 70f
11:00 17 18 mph 1014.2mb 69f
10:00 16 17 mph 1014.4mb 69f
9:00 16 17 mph 1014.7mb 69f
8:00 14 14 mph 1015.4mb 68f
7:00 15 16 mph 1015.2mb 68f
6:00 15 15 mph 1015.4mb 68f
5:00 14 15 mph 1014.8mb 67f
4:00 9 9 mph 1015.6mb 68f
3:00 11 11 mph 1015.7mb 68f
2:00 8 8 mph 1016.1mb 68f
1:00 8 8 mph 1016.5mb 68f
12:00 11 11 mph 1016.8mb 69f
Do 08/17 11:00 8 8 mph 1017mb 68f
10:00 10 11 mph 1016.9mb 68f
9:00 8 8 mph 1016.9mb 68f
8:00 9 10 mph 1016.4mb 68f
7:00 11 11 mph 1016.1mb 69f
6:00 10 10 mph 1016.3mb 69f
5:00 11 11 mph 1016.4mb 69f
4:00 11 13 mph 1016.5mb 68f
3:00 10 11 mph 1016.9mb 69f
2:00 9 9 mph 1017.6mb 69f
1:00 6 6 mph 1018mb 68f
12:00 2 3 mph 1018.3mb 68f
11:00 2 3 mph 1018.8mb 68f
10:00 7 7 mph 1018.7mb 67f
9:00 7 8 mph 1018.5mb 67f
8:00 11 13 mph 1018.5mb 65f
7:00 11 11 mph 1018mb 65f
6:00 13 15 mph 1017.5mb 66f
5:00 16 18 mph 1017.1mb 67f
4:00 16 17 mph 1016.6mb 68f
3:00 15 17 mph 1016.2mb 69f
2:00 17 18 mph 1016.1mb 70f
1:00 14 15 mph 1016mb 69f
12:00 6 7 mph 1016mb 70f
Mi 08/16 11:00 5 6 mph 1016mb 71f
10:00 11 11 mph 1015.7mb 72f
9:00 6 7 mph 1015.4mb 73f
8:00 10 10 mph 1014.8mb 72f
7:00 11 11 mph 1014.2mb 72f
6:00 9 10 mph 1013.8mb 73f
5:00 13 13 mph 1013.4mb 73f
4:00 11 13 mph 1013.3mb 73f
3:00 9 9 mph 1013.4mb 75f
2:00 7 8 mph 1013.5mb 77f
1:00 2 3 mph 1013.5mb 76f
12:00 3 5 mph 1013.5mb 75f
11:00 7 8 mph 1013.3mb 74f
10:00 9 9 mph 1013mb 72f
9:00 13 13 mph 1013.2mb 70f
8:00 13 14 mph 1013.3mb 69f
7:00 13 14 mph 1013mb 69f
6:00 11 11 mph 1012.7mb 67f
5:00 13 13 mph 1012.8mb 67f
4:00 14 16 mph 1012.8mb 68f
3:00 13 14 mph 1012.7mb 69f
2:00 9 10 mph 1012.4mb 68f
1:00 11 13 mph 1012.5mb 69f
12:00 9 9 mph 1012.7mb 68f
Di 08/15 11:00 11 13 mph 1012.6mb 68f
10:00 13 13 mph 1012.9mb 68f
9:00 11 13 mph 1013.3mb 68f
8:00 10 11 mph 1013.5mb 68f
7:00 11 11 mph 1013.6mb 68f
6:00 13 14 mph 1013.4mb 69f
5:00 16 16 mph 1013.2mb 69f
4:00 9 10 mph 1013.4mb 69f
3:00 10 10 mph 1013.7mb 69f
2:00 9 10 mph 1013.9mb 69f
1:00 9 9 mph 1013.9mb 69f
12:00 2 2 mph 1014.2mb 70f
11:00  -  1 mph 1014.5mb 72f
10:00 5 5 mph 1014.8mb 70f
9:00 6 6 mph 1014.7mb 69f
8:00 13 14 mph 1014.9mb 68f
7:00 11 11 mph 1014.9mb 70f
6:00 8 8 mph 1014.8mb 71f
5:00 9 9 mph 1014.6mb 71f
4:00 10 10 mph 1014.8mb 70f
3:00 9 9 mph 1014.4mb 70f
2:00 8 8 mph 1014.8mb 70f
1:00 7 7 mph 1015.2mb 70f
12:00 7 7 mph 1015.3mb 69f
Mo 08/14 11:00 8 9 mph 1015.6mb 68f
10:00 9 10 mph 1015.8mb 68f
9:00 9 10 mph 1015.7mb 68f
7:00 11 11 mph 1015.6mb 68f